Location: Unspecified
(0.0000°N, 0.0000°E)
Time: 14:29:33
(UTC+00:00)

deb Briz - Pass Details

Date: 23 February 2026
Orbit: 1859 x 2171 km, 64.9° (Epoch: 5 March)

Event Time Altitude Azimuth Distance (km) Brightness Sun altitude
Rises 04:41:14 0° 221° (SW) 5,525 ? -22.7°
Reaches altitude 10° 04:44:57 10° 229° (SW) 4,561 ? -21.8°
Maximum altitude 04:55:30 37° 292° (WNW) 2,992 ? -19.2°
Drops below altitude 10° 05:06:27 10° 355° (N) 4,682 ? -16.5°
Sets 05:10:25 0° 3° (N) 5,684 ? -15.5°
